Presure
128 128 123 138 164 145 140 148 140 155 175 157 139 150 140 136 138 131 132 131 135 131 132 136 155 149 149 151 202 118 124 143 184 145 134 167 231 213 215 209 234 193 362 143 234 339 362
162 158 105 118 158 131 156 149 147 139 141 143 145 136 135 125 127 124 135 136 124 118 119 123 119 143 134 126 132 202 133 127 136 166 128 207 233 211 209 212 211 254 218 358 134 346 358
125 121 116 115 146 124 128 114 119 122 165 134 136 138 135 137 128 125 119 122 126 126 141 125 121 123 121 130 176 214 188 126 175 212 201 150 132 148 214 215 214 248 255 321 154 341 342
148 97 120 118 112 122 153 135 136 124 124 139 136 137 118 124 123 123 127 159 132 131 129 130 111 112 129 126 150 165 164 128 158 130 133 142 174 210 170 215 212 233 244 268 223 341 344
160 151 157 115 126 124 157 126 135 117 122 116 123 127 140 123 121 120 123 122 130 132 154 116 152 147 174 153 170 152 156 171 158 167 204 229 167 133 148 223 203 199 245 250 305 345 340
164 164 154 125 122 131 155 141 157 132 131 129 127 130 120 125 129 132 120 128 136 156 144 125 136 164 190 160 178 195 193 174 144 116 214 177 182 147 149 188 206 206 236 248 260 351 349
169 181 176 177 167 179 140 133 144 135 125 133 127 118 118 126 123 122 122 119 118 130 118 118 186 116 118 123 176 221 209 223 126 136 119 179 225 216 223 224 211 202 213 238 213 362 360
181 180 174 174 176 165 161 153 134 141 194 180 178 139 127 124 123 142 144 162 132 168 130 122 127 117 195 150 181 209 196 200 194 182 178 164 184 187 134 209 218 212 236 226 228 239 371
169 172 174 181 182 182 152 156 187 121 118 110 122 121 119 155 146 156 133 199 178 170 119 111 168 146 190 135 186 194 189 171 221 191 214 142 215 222 213 137 220 230 209 219 236 205 283
178 174 178 177 181 188 180 171 185 185 158 179 164 160 165 197 182 207 143 143 145 119 179 202 200 187 215 187 191 186 214 217 204 213 206 206 207 204 223 220 141 213 218 214 226 240 244
153 211 182 184 177 175 198 200 187 149 181 125 171 201 172 164 139 149 168 199 175 189 210 188 191 210 167 173 184 167 196 194 182 201 223 201 204 208 206 218 183 140 224 216 221 224 234
175 173 191 174 184 187 186 197 184 185 186 188 164 195 204 200 206 187 193 199 212 165 201 191 223 197 212 199 181 197 208 210 188 221 161 215 220 175 219 211 221 171 213 215 208 209 231
195 199 178 182 190 185 176 178 184 192 195 198 196 193 187 202 197 192 190 203 209 192 176 223 193 196 200 199 196 208 214 187 200 187 210 223 209 217 208 217 210 190 186 219 214 210 216
202 201 204 202 200 203 205 191 197 196 194 194 194 203 188 190 191 195 159 142 208 203 193 203 209 192 194 199 204 185 180 196 183 228 218 216 219 207 209 215 200 208 222 217 212 212 204
201 171 200 191 196 196 202 200 200 193 202 204 196 197 202 184 196 192 198 204 185 210 204 199 188 203 209 188 188 188 179 183 218 178 225 211 219 216 209 212 207 208 211 209 195 196 208
235 228 216 216 212 203 207 206 160 184 196 195 213 212 205 199 206 195 212 188 200 206 209 163 194 201 213 213 190 186 213 205 212 203 223 205 224 223 219 217 215 208 214 228 213 218 212
229 245 230 239 239 243 221 216 214 195 207 164 173 207 205 205 202 209 189 197 200 209 201 210 214 209 208 209 197 183 215 228 208 226 229 228 219 215 227 216 221 216 222 221 212 213 210
229 227 208 232 240 236 238 227 237 195 240 240 242 178 197 148 205 229 217 195 223 199 219 210 207 220 214 223 229 218 221 230 235 229 232 227 231 225 228 224 219 225 225 217 220 207 218
201 203 220 227 234 204 222 222 231 216 206 231 222 235 226 232 228 226 230 211 200 216 220 225 212 219 230 224 225 230 239 234 194 239 229 230 230 221 225 216 227 222 220 224 218 216 212
227 219 218 229 221 212 168 184 235 223 217 208 146 150 185 161 160 158 163 159 210 233 223 247 232 231 223 223 243 245 224 232 193 238 231 235 186 191 252 243 243 237 233 223 223 219 212
225 238 195 226 215 226 230 126 210 223 224 217 208 184 165 165 166 199 189 183 201 216 215 222 225 182 188 218 220 218 201 214 203 161 199 241 198 189 237 218 221 231 227 235 222 219 216
230 240 246 260 275 252 235 229 233 235 233 240 230 226 214 207 221 226 203 228 228 224 231 228 185 216 216 214 184 225 221 187 195 158 156 200 228 231 151 150 155 243 229 255 249 229 222
235 240 238 280 274 267 255 250 214 249 258 243 235 122 203 219 219 223 215 218 221 215 221 223 222 227 225 229 231 224 230 189 194 226 221 228 205 195 166 152 220 239 214 188 199 248 239
229 233 281 277 265 256 254 258 253 254 255 250 192 165 228 233 239 217 223 220 219 214 217 217 223 228 219 227 193 189 188 238 215 226 220 214 200 215 183 158 233 216 163 181 218 238 245
225 252 287 288 266 266 268 260 249 256 254 250 250 223 241 239 241 238 226 220 217 223 223 143 163 169 213 222 226 236 243 242 234 247 213 226 225 231 233 198 162 195 217 165 189 198 246
283 293 210 289 269 255 258 257 252 212 256 250 246 241 245 260 249 255 237 234 237 138 238 229 223 222 221 222 243 248 228 226 243 240 225 236 241 219 219 221 221 225 229 218 184 174 222
293 289 277 272 268 264 264 258 255 253 248 241 252 256 249 249 233 201 235 233 235 232 145 229 224 222 233 235 236 243 229 243 234 216 219 223 220 226 167 210 192 205 230 234 231 180 180
289 275 269 264 253 256 257 185 261 255 251 249 236 245 248 251 243 241 235 238 237 230 226 236 230 229 230 235 242 211 236 239 245 229 194 227 229 236 220 222 226 219 227 225 248 252 244
279 272 264 256 260 256 262 262 263 173 197 257 252 257 249 250 244 245 243 241 249 249 250 249 248 238 152 233 226 232 242 233 198 241 232 226 232 227 228 235 232 241 241 242 235 246 252
Wind_Speed
26 25 21 25 23 24 23 22 21 21 23 21 19 18 20 20 21 19 20 21 23 21 22 24 29 29 28 33 30 16 25 28 38 32 34 40 45 52 56 56 63 43 34 32 32 25 21
28 28 23 21 30 25 24 26 26 24 24 24 23 22 22 19 20 19 24 25 19 16 17 19 18 28 28 26 31 40 34 30 26 39 28 47 49 44 57 58 53 72 54 35 33 25 22
33 30 25 23 35 26 28 24 23 22 33 25 25 25 24 27 24 23 21 22 24 24 30 24 21 22 23 31 34 34 45 32 39 47 50 31 31 35 51 56 54 71 67 63 31 35 19
39 31 31 30 28 29 35 34 33 28 28 31 30 29 25 25 23 24 25 37 29 28 28 29 17 18 31 28 38 42 40 36 39 33 35 33 42 48 39 57 57 65 66 79 30 35 24
42 44 41 33 35 34 35 35 38 29 30 29 30 31 35 29 27 26 26 26 31 31 39 22 33 38 47 34 44 40 40 46 43 47 51 56 41 32 35 55 57 51 67 66 65 36 27
48 48 49 40 36 39 48 40 43 41 40 38 36 37 32 34 35 37 27 34 38 36 37 32 38 44 39 44 39 48 53 49 40 21 48 45 47 36 38 42 54 51 60 68 73 45 31
51 50 49 49 51 48 48 44 49 46 39 43 40 36 35 37 36 35 33 30 29 36 32 30 48 30 30 35 48 44 43 46 35 41 23 51 53 49 45 42 50 52 51 63 48 47 30
56 55 52 52 54 55 51 56 41 51 56 51 53 43 41 39 39 44 47 54 40 52 39 36 37 34 48 44 53 43 51 45 46 58 53 42 38 52 31 39 40 49 59 57 55 60 30
54 57 57 58 58 59 51 52 58 42 39 36 41 41 39 51 52 57 46 49 60 59 38 34 45 48 51 40 51 52 55 52 47 41 44 43 47 48 49 30 46 50 48 50 57 43 75
61 61 62 61 61 65 62 64 62 61 59 58 64 61 55 60 60 54 45 47 50 43 50 43 51 59 42 48 54 58 48 48 52 45 45 47 49 51 51 48 30 41 43 47 52 60 61
50 61 65 66 65 66 68 68 65 57 64 44 69 63 68 65 56 59 65 56 67 59 50 58 49 43 57 59 62 56 55 55 44 48 44 48 48 46 46 47 34 26 43 44 49 53 55
66 67 68 66 69 68 70 68 69 67 66 66 72 68 65 62 57 64 61 58 63 65 53 59 56 53 48 49 50 52 50 50 58 51 44 44 44 39 41 40 48 32 38 39 41 44 53
71 70 70 69 71 71 69 68 71 72 68 66 65 65 66 60 59 60 63 60 61 62 69 62 59 57 56 51 53 52 46 56 52 56 53 51 46 45 42 45 40 36 32 42 39 37 41
74 74 76 74 74 74 74 74 72 72 69 69 67 66 68 65 61 61 62 57 66 66 66 57 57 60 60 53 54 60 58 55 52 56 53 53 49 43 41 41 41 38 41 29 27 26 32
79 61 77 73 76 76 77 75 75 72 75 74 69 70 71 69 65 65 65 67 68 67 64 61 63 59 62 63 59 60 58 57 57 53 52 50 50 49 42 40 37 36 34 30 26 34 27
73 74 85 87 87 81 87 86 64 72 75 74 81 80 76 73 73 68 72 66 68 68 66 58 63 66 67 65 62 59 60 60 53 55 56 50 50 50 50 45 41 37 37 43 26 23 18
65 54 69 66 67 65 89 89 89 77 84 67 67 82 80 77 74 75 67 68 68 73 68 71 69 66 67 65 62 60 64 66 57 60 56 53 49 46 48 46 44 41 42 39 27 24 15
67 70 77 66 65 72 72 81 66 77 68 70 69 68 78 56 74 78 80 66 80 69 79 71 68 80 73 75 71 67 69 67 64 59 57 53 51 50 50 48 49 46 41 35 33 23 26
78 78 73 69 67 79 75 81 77 84 84 68 62 71 77 74 76 79 76 80 71 81 81 80 75 79 73 71 68 70 65 64 49 57 54 52 50 43 49 44 48 47 43 39 35 29 26
75 79 82 80 82 83 58 64 76 80 81 83 55 60 70 61 61 63 64 63 79 74 76 71 73 72 70 71 67 60 61 60 54 57 56 55 48 45 41 43 42 43 43 42 38 34 31
77 76 67 84 87 84 82 53 83 77 77 86 78 70 68 69 72 74 75 73 77 78 76 78 74 63 59 64 66 65 57 60 53 48 51 52 47 47 46 44 41 40 42 41 39 36 35
78 81 78 78 75 81 85 86 85 82 80 78 86 87 87 83 83 77 85 74 77 79 76 76 67 78 77 74 58 72 67 52 57 54 52 51 51 51 44 39 45 48 40 37 43 42 41
83 84 80 76 74 76 80 81 72 83 82 81 83 52 79 82 83 83 82 82 77 79 77 79 76 75 75 78 78 73 70 59 61 61 61 59 56 46 53 44 43 47 42 45 42 40 39
81 82 80 74 74 75 78 77 77 79 82 84 68 60 83 79 85 85 85 84 85 83 78 80 82 79 81 82 68 66 61 71 66 67 64 62 58 56 53 59 50 46 46 50 45 42 40
75 81 71 71 75 75 73 74 76 76 79 83 85 80 82 80 81 84 87 87 88 88 85 61 68 65 80 83 81 79 78 76 68 68 65 67 67 66 59 49 59 56 56 53 51 51 45
79 71 54 68 73 74 77 76 78 64 75 79 82 85 86 79 79 78 87 88 89 61 86 85 87 89 87 83 85 80 75 76 74 68 67 70 70 65 60 61 55 59 60 56 54 55 52
74 71 73 72 72 73 75 77 78 79 82 83 82 83 85 82 79 73 86 89 90 91 64 89 94 90 94 93 88 83 77 81 76 71 72 71 69 71 61 57 58 62 72 65 56 59 61
72 74 73 73 75 77 78 55 81 82 84 86 90 91 90 88 86 89 93 94 94 92 91 95 94 93 96 97 96 83 85 83 82 74 68 76 76 72 76 76 60 70 72 72 78 71 62
73 73 74 76 75 74 78 80 83 52 68 90 90 94 94 93 88 91 93 98 101 100 100 99 96 94 54 98 92 94 95 80 66 81 82 78 84 82 79 79 77 79 83 83 76 76 70
Wind_Direction
239 251 243 257 276 255 258 267 269 275 291 277 263 273 268 271 273 277 280 285 289 296 298 298 300 301 311 308 308 323 327 322 321 320 322 328 331 314 320 326 339 335 343 294 316 327 311
258 271 218 245 264 260 274 259 260 263 264 264 262 263 265 266 271 274 280 282 291 290 299 299 313 309 309 311 309 309 311 319 317 317 319 331 339 333 323 325 335 354 346 356 301 343 346
251 251 244 242 258 257 263 250 263 267 279 268 267 267 270 272 272 278 279 286 290 295 293 300 304 307 311 310 311 317 312 314 325 324 321 323 319 318 321 326 339 353 355 6 303 356 345
262 250 249 247 240 254 264 263 261 266 270 267 269 270 264 271 271 274 278 289 287 291 294 296 283 290 304 306 303 308 306 308 315 317 314 320 326 337 329 334 340 353 353 3 340 354 352
264 263 264 240 257 257 277 260 260 255 263 260 269 268 269 270 268 269 278 282 289 291 291 284 297 299 302 301 306 305 304 313 309 318 324 335 323 317 321 346 337 345 356 1 5 359 350
265 266 264 252 250 257 267 263 267 262 263 264 267 268 266 273 279 281 278 287 285 290 288 288 293 298 304 299 306 307 307 315 305 306 324 321 326 319 319 337 328 336 357 1 4 4 352
268 272 269 271 261 271 259 258 262 261 260 264 264 267 268 274 276 278 282 280 283 285 286 289 298 291 294 296 299 318 317 324 299 301 306 324 334 333 340 345 331 334 344 1 354 5 356
271 273 271 272 271 268 266 264 262 262 289 277 270 271 273 273 273 279 281 283 283 287 284 286 288 287 300 298 303 310 306 314 315 315 318 310 329 324 311 339 342 334 1 355 358 5 13
267 269 270 273 273 273 269 271 279 268 269 270 273 274 276 273 277 281 278 294 284 287 279 278 293 289 300 293 303 303 304 308 322 319 322 301 329 335 330 309 349 4 339 351 0 356 12
266 267 269 269 273 275 272 265 276 275 272 270 271 272 274 291 278 296 280 281 279 276 285 297 293 295 300 298 299 301 312 315 312 319 317 321 323 324 337 343 306 347 353 348 356 5 10
269 271 266 267 268 267 273 273 274 265 270 265 270 284 273 276 276 279 279 288 284 287 299 288 295 296 294 297 297 299 304 307 303 310 323 313 321 321 325 336 331 305 1 351 357 0 5
266 267 262 270 266 268 268 273 271 272 274 276 271 281 286 284 286 279 284 288 298 285 291 285 301 291 298 292 291 299 305 308 305 318 300 319 324 312 333 329 342 320 350 356 352 355 3
267 268 265 268 266 266 270 271 271 273 274 275 275 273 275 280 279 279 281 292 296 281 284 299 285 287 294 289 292 300 304 301 305 307 314 322 317 325 324 335 331 330 332 1 0 355 358
272 272 274 272 270 274 275 270 274 273 273 274 274 280 275 273 274 280 278 274 288 290 284 288 294 285 287 290 295 294 298 299 303 316 312 315 318 315 317 325 319 328 340 349 349 358 341
273 268 276 275 276 275 274 274 275 273 278 279 274 278 282 271 277 277 284 289 277 288 288 286 281 290 296 283 289 291 295 296 307 298 312 309 312 311 311 314 315 319 328 333 334 318 349
268 269 269 270 273 273 274 274 270 274 276 276 280 280 281 279 283 279 287 278 284 289 291 282 289 290 295 296 289 292 300 300 301 298 309 305 307 308 309 310 314 313 320 331 333 349 2
270 271 268 270 269 268 269 271 271 274 275 273 274 279 279 279 279 281 277 282 287 290 287 290 290 290 291 293 287 291 299 300 296 303 304 303 303 304 305 305 308 311 317 322 321 328 332
268 268 273 269 269 270 266 268 267 278 268 268 269 276 278 275 278 280 282 279 285 287 288 288 288 291 291 292 292 294 296 297 296 298 299 300 300 301 302 301 304 306 309 307 314 308 321
276 275 268 270 269 276 272 267 268 271 274 269 266 267 273 272 274 277 275 283 287 285 284 283 288 289 286 291 292 291 288 292 291 291 296 295 296 299 297 301 297 299 302 302 303 304 303
273 270 271 270 268 272 266 268 265 269 268 273 270 274 274 275 275 277 278 278 282 277 279 276 279 282 284 287 285 286 289 289 288 290 293 295 287 290 294 293 288 290 290 292 293 296 293
274 281 274 272 273 272 269 270 274 265 265 269 270 272 274 276 278 276 278 279 282 278 281 281 281 274 278 286 287 286 284 289 282 276 289 291 285 286 294 291 295 290 290 285 285 285 285
279 284 286 287 276 269 270 272 272 268 266 260 264 266 271 275 271 270 279 272 271 273 275 275 275 282 285 285 274 282 285 280 278 272 274 286 289 290 272 275 284 298 288 290 283 277 277
283 284 282 285 277 272 269 269 270 269 266 263 263 271 270 269 268 270 273 274 273 274 275 276 277 279 280 279 279 280 280 275 277 281 283 282 279 280 279 276 296 293 282 282 282 285 275
280 280 284 281 276 272 270 269 268 266 264 266 267 267 265 265 264 268 268 269 271 273 273 275 276 275 274 275 272 272 275 279 277 277 278 282 281 284 282 283 288 282 279 284 282 288 278
284 282 281 277 276 275 271 268 268 266 265 265 265 266 264 263 262 262 265 268 270 270 271 270 269 266 273 275 275 278 281 279 278 272 274 277 279 279 281 275 278 282 280 278 277 279 283
286 282 283 274 272 272 272 270 269 266 264 263 264 265 266 260 262 261 264 268 268 274 270 271 272 273 274 275 280 279 276 277 277 275 277 276 274 282 284 281 281 280 277 274 274 278 277
282 278 279 276 274 272 270 268 267 266 266 266 266 263 262 262 263 266 265 266 268 271 277 273 274 276 279 279 279 279 276 276 275 275 277 277 280 278 275 276 277 275 281 282 273 271 275
280 279 277 275 275 274 273 266 269 266 264 264 266 266 266 266 266 266 268 270 270 272 271 271 273 275 276 277 278 276 276 274 273 275 279 277 277 277 275 276 282 276 282 277 281 281 273
280 278 276 275 275 274 273 272 269 254 261 266 265 265 266 266 265 266 267 269 267 267 267 268 269 270 272 272 272 273 275 274 272 278 279 277 277 273 276 279 277 278 277 277 275 275 275